User: anonymous   Login
Location: Unspecified
(0.0000°N, 0.0000°E)
Time: 12:51:50
(UTC+00:00)
Language:

A-11 Canister half - Orbit

View from above orbital plane
View from above orbital plane
View from above satellite
View from above satellite

Ground track
Ground track

The orbit data is extracted from the following two-line orbital elements,

1 00051U 60009C   15185.44021910 -.00000129  00000-0 -43087-3 0  9991
2 00051 047.2101 187.0871 0105114 183.1450 176.8687 12.18257596443425
Epoch (UTC): 04 July 2015 10:33:54
Eccentricity: 0.0105114
inclination: 47.2101°
perigee height: 1516 km
apogee height: 1684 km
right ascension of ascending node: 187.0871°
argument of perigee: 183.1450°
revolutions per day: 12.18257596
mean anomaly at epoch: 176.8687°
orbit number at epoch: 44342

The dashed part of the orbit path shows where the satellite is in the earth's shadow,  

DLR